Tracking 28518 objects as of 2-Mar-2024
HD Live streaming from Space Station
objects crossing your sky now

SL-4 R/B

Track SL-4 R/B now!
10-day predictions


NORAD ID: 58436
Int'l Code: 2023-182B
Perigee: 154.3 km
Apogee: 163.1 km
Inclination: 96.6 °
Period: 87.5 minutes
Semi major axis: 6529 km
RCS: Unknown
Launch date: November 25, 2023
Source: Commonwealth of Independent States (former USSR) (CIS)
Launch site: PLESETSK MISSILE AND SPACE COMPLEX (PKMTR)

Note: This is a ROCKET BODY
Your satellite tracking list
Your tracking list is empty




NASA's NSSDC Master Catalog

Two Line Element Set (TLE):
1 58436U 23182B   24062.17629325  .04764389  20754-5  12727-3 0  9997
2 58436  96.6175 168.5976 0006674 281.9698 128.5773 16.45365512 15568
Source of the keplerian elements: AFSPC